Location: Martley
(52.2333°N, 2.3667°W)
Time: 23:00:26
(UTC+00:00)

Meteor 1-19 Rocket - Pass Details

Date: 11 December 2019
Orbit: 816 x 918 km, 81.2° (Epoch: 22 January)

Event Time Altitude Azimuth Distance (km) Brightness Sun altitude
Exits shadow 05:56:33 13° 341° (NNW) 2,229 6.1 -18.9°
Maximum altitude 06:01:25 63° 263° (W) 935 4.1 -18.1°
Drops below altitude 10° 06:06:55 10° 183° (S) 2,471 6.8 -17.3°
Sets 06:09:23 0° 180° (S) 3,418 7.6 -17.0°
